Wetterdaten: Donnerstag, 03.09.2015
Datum Zeit Temp. A. Feuchte A. Luftdruck Regen Wind Richtung Richtung Sonnenschein ET UV Solar Taupunkt Windchill Windben Empfang
03.09.2015 00:04 13,1 C 99 % 1016,0 hPa 0,0 l/m 1,4 km/h (1 Bft) O-SO 115 0 min 0,000 mm 0,0 UV-I 0 W/m 12,9 C 13,1 C 4,0 km/h (1 Bft) 0,00 %
03.09.2015 00:09 13,0 C 99 % 1016,1 hPa 0,0 l/m 0,0 km/h (0 Bft) NO 51 0 min 0,000 mm 0,0 UV-I 0 W/m 12,8 C 13,0 C 0,0 km/h (0 Bft) 0,00 %
03.09.2015 00:14 13,0 C 99 % 1016,2 hPa 0,0 l/m 0,0 km/h (0 Bft) NO 46 0 min 0,000 mm 0,0 UV-I 0 W/m 12,8 C 13,0 C 0,0 km/h (0 Bft) 0,00 %
03.09.2015 00:19 12,9 C 99 % 1016,1 hPa 0,0 l/m 0,0 km/h (0 Bft) NO 49 0 min 0,000 mm 0,0 UV-I 0 W/m 12,7 C 12,9 C 0,0 km/h (0 Bft) 0,00 %
03.09.2015 00:24 12,9 C 99 % 1016,2 hPa 0,0 l/m 0,0 km/h (0 Bft) NO 51 0 min 0,000 mm 0,0 UV-I 0 W/m 12,7 C 12,9 C 0,0 km/h (0 Bft) 0,00 %
03.09.2015 00:29 12,9 C 99 % 1016,1 hPa 0,0 l/m 0,0 km/h (0 Bft) NO 47 0 min 0,000 mm 0,0 UV-I 0 W/m 12,7 C 12,9 C 0,0 km/h (0 Bft) 0,00 %
03.09.2015 00:34 12,9 C 99 % 1016,0 hPa 0,0 l/m 0,0 km/h (0 Bft) O 81 0 min 0,000 mm 0,0 UV-I 0 W/m 12,7 C 12,9 C 0,0 km/h (0 Bft) 0,00 %
03.09.2015 00:39 12,9 C 99 % 1016,0 hPa 0,0 l/m 0,4 km/h (0 Bft) O-SO 103 0 min 0,000 mm 0,0 UV-I 0 W/m 12,7 C 12,9 C 4,0 km/h (1 Bft) 0,00 %
03.09.2015 00:44 12,9 C 99 % 1016,0 hPa 0,0 l/m 0,0 km/h (0 Bft) O-NO 70 0 min 0,000 mm 0,0 UV-I 0 W/m 12,7 C 12,9 C 0,0 km/h (0 Bft) 0,00 %
03.09.2015 00:49 13,0 C 99 % 1015,8 hPa 0,0 l/m 0,0 km/h (0 Bft) O-NO 78 0 min 0,000 mm 0,0 UV-I 0 W/m 12,8 C 13,0 C 0,0 km/h (0 Bft) 0,00 %
03.09.2015 00:54 13,0 C 99 % 1015,8 hPa 0,0 l/m 1,4 km/h (1 Bft) O-SO 106 0 min 0,000 mm 0,0 UV-I 0 W/m 12,8 C 13,0 C 4,0 km/h (1 Bft) 0,00 %
03.09.2015 00:59 13,0 C 99 % 1015,6 hPa 0,0 l/m 0,0 km/h (0 Bft) O-NO 62 0 min 0,000 mm 0,0 UV-I 0 W/m 12,8 C 13,0 C 0,0 km/h (0 Bft) 0,00 %
03.09.2015 01:04 13,0 C 99 % 1015,8 hPa 0,0 l/m 0,0 km/h (0 Bft) O 97 0 min 0,000 mm 0,0 UV-I 0 W/m 12,8 C 13,0 C 0,0 km/h (0 Bft) 0,00 %
03.09.2015 01:09 12,9 C 99 % 1015,6 hPa 0,0 l/m 0,0 km/h (0 Bft) NO 46 0 min 0,000 mm 0,0 UV-I 0 W/m 12,7 C 12,9 C 0,0 km/h (0 Bft) 0,00 %
03.09.2015 01:14 12,8 C 99 % 1015,6 hPa 0,0 l/m 1,4 km/h (1 Bft) O 96 0 min 0,000 mm 0,0 UV-I 0 W/m 12,6 C 12,8 C 4,0 km/h (1 Bft) 0,00 %
03.09.2015 01:19 12,8 C 99 % 1015,3 hPa 0,0 l/m 0,0 km/h (0 Bft) O-NO 60 0 min 0,000 mm 0,0 UV-I 0 W/m 12,6 C 12,8 C 0,0 km/h (0 Bft) 0,00 %
03.09.2015 01:24 12,7 C 99 % 1015,4 hPa 0,0 l/m 0,0 km/h (0 Bft) NO 50 0 min 0,000 mm 0,0 UV-I 0 W/m 12,5 C 12,7 C 0,0 km/h (0 Bft) 0,00 %
03.09.2015 01:29 12,7 C 99 % 1015,4 hPa 0,0 l/m 0,0 km/h (0 Bft) NO 40 0 min 0,000 mm 0,0 UV-I 0 W/m 12,5 C 12,7 C 0,0 km/h (0 Bft) 0,00 %
03.09.2015 01:34 12,7 C 99 % 1015,5 hPa 0,0 l/m 1,8 km/h (1 Bft) SO 125 0 min 0,000 mm 0,0 UV-I 0 W/m 12,5 C 12,7 C 4,0 km/h (1 Bft) 0,00 %
03.09.2015 01:39 12,7 C 99 % 1015,5 hPa 0,0 l/m 0,0 km/h (0 Bft) NO 56 0 min 0,000 mm 0,0 UV-I 0 W/m 12,5 C 12,7 C 0,0 km/h (0 Bft) 0,00 %
03.09.2015 01:44 12,7 C 99 % 1015,4 hPa 0,0 l/m 0,0 km/h (0 Bft) O-NO 77 0 min 0,000 mm 0,0 UV-I 0 W/m 12,5 C 12,7 C 0,0 km/h (0 Bft) 0,00 %
03.09.2015 01:49 12,6 C 99 % 1015,6 hPa 0,0 l/m 0,0 km/h (0 Bft) O-NO 58 0 min 0,000 mm 0,0 UV-I 0 W/m 12,4 C 12,6 C 0,0 km/h (0 Bft) 0,00 %
03.09.2015 01:54 12,6 C 99 % 1015,5 hPa 0,0 l/m 0,0 km/h (0 Bft) O-NO 61 0 min 0,000 mm 0,0 UV-I 0 W/m 12,4 C 12,6 C 0,0 km/h (0 Bft) 0,00 %
03.09.2015 01:59 12,6 C 99 % 1015,5 hPa 0,0 l/m 0,0 km/h (0 Bft) O-NO 63 0 min 0,000 mm 0,0 UV-I 0 W/m 12,4 C 12,6 C 0,0 km/h (0 Bft) 0,00 %
03.09.2015 02:04 12,7 C 99 % 1015,3 hPa 0,0 l/m 0,0 km/h (0 Bft) NO 49 0 min 0,000 mm 0,0 UV-I 0 W/m 12,5 C 12,7 C 0,0 km/h (0 Bft) 0,00 %
03.09.2015 02:09 12,7 C 99 % 1015,2 hPa 0,0 l/m 0,0 km/h (0 Bft) O-NO 65 0 min 0,000 mm 0,0 UV-I 0 W/m 12,5 C 12,7 C 0,0 km/h (0 Bft) 0,00 %
03.09.2015 02:14 12,7 C 99 % 1015,2 hPa 0,0 l/m 0,0 km/h (0 Bft) O-NO 57 0 min 0,000 mm 0,0 UV-I 0 W/m 12,5 C 12,7 C 0,0 km/h (0 Bft) 0,00 %
03.09.2015 02:19 12,8 C 99 % 1015,2 hPa 0,0 l/m 0,0 km/h (0 Bft) O-NO 68 0 min 0,000 mm 0,0 UV-I 0 W/m 12,6 C 12,8 C 0,0 km/h (0 Bft) 0,00 %
03.09.2015 02:24 12,8 C 99 % 1015,3 hPa 0,0 l/m 0,0 km/h (0 Bft) O 85 0 min 0,000 mm 0,0 UV-I 0 W/m 12,6 C 12,8 C 0,0 km/h (0 Bft) 0,00 %
03.09.2015 02:29 12,8 C 99 % 1015,0 hPa 0,0 l/m 0,0 km/h (0 Bft) NO 55 0 min 0,000 mm 0,0 UV-I 0 W/m 12,6 C 12,8 C 0,0 km/h (0 Bft) 0,00 %
03.09.2015 02:34 12,9 C 99 % 1015,1 hPa 0,0 l/m 0,0 km/h (0 Bft) O-SO 113 0 min 0,000 mm 0,0 UV-I 0 W/m 12,7 C 12,9 C 0,0 km/h (0 Bft) 0,00 %
03.09.2015 02:39 12,9 C 99 % 1015,0 hPa 0,0 l/m 0,0 km/h (0 Bft) NO 54 0 min 0,000 mm 0,0 UV-I 0 W/m 12,7 C 12,9 C 0,0 km/h (0 Bft) 0,00 %
03.09.2015 02:44 13,0 C 99 % 1015,1 hPa 0,0 l/m 0,0 km/h (0 Bft) O-NO 61 0 min 0,000 mm 0,0 UV-I 0 W/m 12,8 C 13,0 C 0,0 km/h (0 Bft) 0,00 %
03.09.2015 02:49 13,0 C 99 % 1014,9 hPa 0,0 l/m 0,0 km/h (0 Bft) O-NO 70 0 min 0,000 mm 0,0 UV-I 0 W/m 12,8 C 13,0 C 0,0 km/h (0 Bft) 0,00 %
03.09.2015 02:54 13,0 C 99 % 1015,2 hPa 0,0 l/m 0,0 km/h (0 Bft) N-NO 32 0 min 0,000 mm 0,0 UV-I 0 W/m 12,8 C 13,0 C 0,0 km/h (0 Bft) 0,00 %
03.09.2015 02:59 13,0 C 99 % 1015,0 hPa 0,0 l/m 0,0 km/h (0 Bft) O 80 0 min 0,000 mm 0,0 UV-I 0 W/m 12,8 C 13,0 C 0,0 km/h (0 Bft) 0,00 %
03.09.2015 03:04 13,0 C 99 % 1015,0 hPa 0,0 l/m 0,0 km/h (0 Bft) N-NO 31 0 min 0,000 mm 0,0 UV-I 0 W/m 12,8 C 13,0 C 0,0 km/h (0 Bft) 0,00 %
03.09.2015 03:09 13,0 C 99 % 1014,9 hPa 0,0 l/m 0,0 km/h (0 Bft) NO 36 0 min 0,000 mm 0,0 UV-I 0 W/m 12,8 C 13,0 C 0,0 km/h (0 Bft) 0,00 %
03.09.2015 03:14 13,0 C 99 % 1014,9 hPa 0,0 l/m 0,0 km/h (0 Bft) NO 51 0 min 0,000 mm 0,0 UV-I 0 W/m 12,8 C 13,0 C 0,0 km/h (0 Bft) 0,00 %
03.09.2015 03:19 13,1 C 99 % 1015,0 hPa 0,0 l/m 0,0 km/h (0 Bft) NO 45 0 min 0,000 mm 0,0 UV-I 0 W/m 12,9 C 13,1 C 0,0 km/h (0 Bft) 0,00 %
03.09.2015 03:24 13,1 C 99 % 1014,9 hPa 0,0 l/m 0,0 km/h (0 Bft) N-NO 28 0 min 0,000 mm 0,0 UV-I 0 W/m 12,9 C 13,1 C 0,0 km/h (0 Bft) 0,00 %
03.09.2015 03:29 13,1 C 99 % 1015,0 hPa 0,0 l/m 0,0 km/h (0 Bft) O-NO 59 0 min 0,000 mm 0,0 UV-I 0 W/m 12,9 C 13,1 C 0,0 km/h (0 Bft) 0,00 %
03.09.2015 03:34 13,1 C 99 % 1014,7 hPa 0,0 l/m 0,0 km/h (0 Bft) NO 56 0 min 0,000 mm 0,0 UV-I 0 W/m 12,9 C 13,1 C 0,0 km/h (0 Bft) 0,00 %
03.09.2015 03:39 13,2 C 99 % 1014,6 hPa 0,0 l/m 0,0 km/h (0 Bft) S-SW 212 0 min 0,000 mm 0,0 UV-I 0 W/m 13,0 C 13,2 C 0,0 km/h (0 Bft) 0,00 %
03.09.2015 03:44 13,2 C 99 % 1014,6 hPa 0,0 l/m 0,4 km/h (0 Bft) NO 52 0 min 0,000 mm 0,0 UV-I 0 W/m 13,0 C 13,2 C 4,0 km/h (1 Bft) 0,00 %
03.09.2015 03:49 13,2 C 99 % 1014,5 hPa 0,0 l/m 0,7 km/h (0 Bft) O-NO 68 0 min 0,000 mm 0,0 UV-I 0 W/m 13,0 C 13,2 C 4,0 km/h (1 Bft) 0,00 %
03.09.2015 03:54 13,2 C 99 % 1014,4 hPa 0,0 l/m 0,0 km/h (0 Bft) NO 42 0 min 0,000 mm 0,0 UV-I 0 W/m 13,0 C 13,2 C 0,0 km/h (0 Bft) 0,00 %
03.09.2015 03:59 13,2 C 99 % 1014,4 hPa 0,0 l/m 0,4 km/h (0 Bft) O-NO 57 0 min 0,000 mm 0,0 UV-I 0 W/m 13,0 C 13,2 C 4,0 km/h (1 Bft) 0,00 %
03.09.2015 04:04 13,2 C 99 % 1014,5 hPa 0,0 l/m 0,0 km/h (0 Bft) O-NO 66 0 min 0,000 mm 0,0 UV-I 0 W/m 13,0 C 13,2 C 0,0 km/h (0 Bft) 0,00 %
03.09.2015 04:09 13,2 C 99 % 1014,4 hPa 0,0 l/m 0,4 km/h (0 Bft) NO 47 0 min 0,000 mm 0,0 UV-I 0 W/m 13,0 C 13,2 C 4,0 km/h (1 Bft) 0,00 %
03.09.2015 04:14 13,2 C 99 % 1014,5 hPa 0,0 l/m 0,0 km/h (0 Bft) NO 53 0 min 0,000 mm 0,0 UV-I 0 W/m 13,0 C 13,2 C 0,0 km/h (0 Bft) 0,00 %
03.09.2015 04:19 13,2 C 99 % 1014,6 hPa 0,0 l/m 0,0 km/h (0 Bft) NO 50 0 min 0,000 mm 0,0 UV-I 0 W/m 13,0 C 13,2 C 0,0 km/h (0 Bft) 0,00 %
03.09.2015 04:24 13,2 C 99 % 1014,4 hPa 0,0 l/m 0,0 km/h (0 Bft) NO 48 0 min 0,000 mm 0,0 UV-I 0 W/m 13,0 C 13,2 C 0,0 km/h (0 Bft) 0,00 %
03.09.2015 04:29 13,2 C 99 % 1014,6 hPa 0,0 l/m 0,0 km/h (0 Bft) NO 53 0 min 0,000 mm 0,0 UV-I 0 W/m 13,0 C 13,2 C 0,0 km/h (0 Bft) 0,00 %
03.09.2015 04:34 13,3 C 99 % 1014,4 hPa 0,0 l/m 0,0 km/h (0 Bft) NO 45 0 min 0,000 mm 0,0 UV-I 0 W/m 13,1 C 13,3 C 0,0 km/h (0 Bft) 0,00 %
03.09.2015 04:39 13,3 C 99 % 1014,5 hPa 0,0 l/m 0,0 km/h (0 Bft) NO 50 0 min 0,000 mm 0,0 UV-I 0 W/m 13,1 C 13,3 C 0,0 km/h (0 Bft) 0,00 %
03.09.2015 04:44 13,2 C 99 % 1014,6 hPa 0,0 l/m 0,0 km/h (0 Bft) NO 46 0 min 0,000 mm 0,0 UV-I 0 W/m 13,0 C 13,2 C 0,0 km/h (0 Bft) 0,00 %
03.09.2015 04:49 13,2 C 99 % 1014,5 hPa 0,0 l/m 0,0 km/h (0 Bft) NO 41 0 min 0,000 mm 0,0 UV-I 0 W/m 13,0 C 13,2 C 0,0 km/h (0 Bft) 0,00 %
03.09.2015 04:54 13,2 C 99 % 1014,5 hPa 0,0 l/m 0,0 km/h (0 Bft) NO 43 0 min 0,000 mm 0,0 UV-I 0 W/m 13,0 C 13,2 C 0,0 km/h (0 Bft) 0,00 %
03.09.2015 04:59 13,3 C 99 % 1014,6 hPa 0,0 l/m 0,0 km/h (0 Bft) NO 43 0 min 0,000 mm 0,0 UV-I 0 W/m 13,1 C 13,3 C 0,0 km/h (0 Bft) 0,00 %
03.09.2015 05:04 13,3 C 99 % 1014,6 hPa 0,0 l/m 0,0 km/h (0 Bft) NO 46 0 min 0,000 mm 0,0 UV-I 0 W/m 13,1 C 13,3 C 0,0 km/h (0 Bft) 0,00 %
03.09.2015 05:09 13,3 C 99 % 1014,5 hPa 0,0 l/m 0,0 km/h (0 Bft) NO 48 0 min 0,000 mm 0,0 UV-I 0 W/m 13,1 C 13,3 C 0,0 km/h (0 Bft) 0,00 %
03.09.2015 05:14 13,3 C 99 % 1014,4 hPa 0,0 l/m 0,0 km/h (0 Bft) NO 44 0 min 0,000 mm 0,0 UV-I 0 W/m 13,1 C 13,3 C 0,0 km/h (0 Bft) 0,00 %
03.09.2015 05:19 13,3 C 99 % 1014,5 hPa 0,0 l/m 0,0 km/h (0 Bft) N-NO 33 0 min 0,000 mm 0,0 UV-I 0 W/m 13,1 C 13,3 C 0,0 km/h (0 Bft) 0,00 %
03.09.2015 05:24 13,3 C 99 % 1014,7 hPa 0,0 l/m 0,0 km/h (0 Bft) N 349 0 min 0,000 mm 0,0 UV-I 0 W/m 13,1 C 13,3 C 0,0 km/h (0 Bft) 0,00 %
03.09.2015 05:29 13,2 C 99 % 1014,6 hPa 0,0 l/m 0,0 km/h (0 Bft) N 351 0 min 0,000 mm 0,0 UV-I 0 W/m 13,0 C 13,2 C 0,0 km/h (0 Bft) 0,00 %
03.09.2015 05:34 13,2 C 99 % 1014,4 hPa 0,0 l/m 0,0 km/h (0 Bft) O-NO 60 0 min 0,000 mm 0,0 UV-I 0 W/m 13,0 C 13,2 C 0,0 km/h (0 Bft) 0,00 %
03.09.2015 05:39 13,2 C 99 % 1014,4 hPa 0,0 l/m 0,0 km/h (0 Bft) NO 42 0 min 0,000 mm 0,0 UV-I 0 W/m 13,0 C 13,2 C 0,0 km/h (0 Bft) 0,00 %
03.09.2015 05:44 13,2 C 99 % 1014,6 hPa 0,0 l/m 0,0 km/h (0 Bft) NO 34 0 min 0,000 mm 0,0 UV-I 0 W/m 13,0 C 13,2 C 0,0 km/h (0 Bft) 0,00 %
03.09.2015 05:49 13,2 C 99 % 1014,7 hPa 0,0 l/m 0,0 km/h (0 Bft) NO 44 0 min 0,000 mm 0,0 UV-I 0 W/m 13,0 C 13,2 C 0,0 km/h (0 Bft) 0,00 %
03.09.2015 05:54 13,2 C 99 % 1014,6 hPa 0,0 l/m 0,0 km/h (0 Bft) SO 141 0 min 0,000 mm 0,0 UV-I 0 W/m 13,0 C 13,2 C 0,0 km/h (0 Bft) 0,00 %
03.09.2015 05:59 13,3 C 99 % 1014,6 hPa 0,0 l/m 0,0 km/h (0 Bft) N 354 0 min 0,000 mm 0,0 UV-I 0 W/m 13,1 C 13,3 C 0,0 km/h (0 Bft) 0,00 %
03.09.2015 06:04 13,2 C 99 % 1014,5 hPa 0,0 l/m 0,0 km/h (0 Bft) NO 37 0 min 0,000 mm 0,0 UV-I 0 W/m 13,0 C 13,2 C 0,0 km/h (0 Bft) 0,00 %
03.09.2015 06:09 13,2 C 99 % 1014,5 hPa 0,0 l/m 1,4 km/h (1 Bft) N-NO 27 0 min 0,000 mm 0,0 UV-I 0 W/m 13,0 C 13,2 C 4,0 km/h (1 Bft) 0,00 %
03.09.2015 06:14 13,2 C 99 % 1014,5 hPa 0,0 l/m 0,4 km/h (0 Bft) NO 52 0 min 0,000 mm 0,0 UV-I 0 W/m 13,0 C 13,2 C 4,0 km/h (1 Bft) 0,00 %
03.09.2015 06:19 13,2 C 99 % 1014,4 hPa 0,0 l/m 0,0 km/h (0 Bft) O-SO 104 0 min 0,000 mm 0,0 UV-I 0 W/m 13,0 C 13,2 C 0,0 km/h (0 Bft) 0,00 %
03.09.2015 06:24 13,1 C 99 % 1014,3 hPa 0,0 l/m 0,0 km/h (0 Bft) NO 47 0 min 0,000 mm 0,0 UV-I 0 W/m 12,9 C 13,1 C 0,0 km/h (0 Bft) 0,00 %
03.09.2015 06:29 13,1 C 99 % 1014,2 hPa 0,0 l/m 1,8 km/h (1 Bft) O 84 0 min 0,000 mm 0,0 UV-I 0 W/m 12,9 C 13,1 C 4,0 km/h (1 Bft) 0,00 %
03.09.2015 06:34 13,0 C 99 % 1014,1 hPa 0,0 l/m 0,0 km/h (0 Bft) O 101 0 min 0,000 mm 0,0 UV-I 0 W/m 12,8 C 13,0 C 0,0 km/h (0 Bft) 0,00 %
03.09.2015 06:39 13,0 C 99 % 1014,1 hPa 0,0 l/m 0,7 km/h (0 Bft) O-NO 71 0 min 0,000 mm 0,0 UV-I 2 W/m 12,8 C 13,0 C 4,0 km/h (1 Bft) 0,00 %
03.09.2015 06:44 12,9 C 99 % 1014,0 hPa 0,0 l/m 3,2 km/h (1 Bft) O-SO 116 0 min 0,000 mm 0,0 UV-I 6 W/m 12,7 C 12,9 C 7,9 km/h (2 Bft) 0,00 %
03.09.2015 06:49 12,9 C 99 % 1013,8 hPa 0,0 l/m 2,2 km/h (1 Bft) S 172 0 min 0,000 mm 0,0 UV-I 9 W/m 12,7 C 12,9 C 4,0 km/h (1 Bft) 0,00 %
03.09.2015 06:54 12,9 C 99 % 1013,8 hPa 0,0 l/m 4,3 km/h (1 Bft) O-SO 116 0 min 0,000 mm 0,0 UV-I 18 W/m 12,7 C 12,9 C 7,9 km/h (2 Bft) 0,00 %
03.09.2015 06:59 12,9 C 99 % 1013,9 hPa 0,0 l/m 0,7 km/h (0 Bft) N 357 0 min 0,000 mm 0,0 UV-I 22 W/m 12,7 C 12,9 C 4,0 km/h (1 Bft) 0,00 %
03.09.2015 07:04 12,8 C 99 % 1013,7 hPa 0,0 l/m 5,4 km/h (1 Bft) SO 133 0 min 0,000 mm 0,0 UV-I 24 W/m 12,6 C 12,8 C 7,9 km/h (2 Bft) 0,00 %
03.09.2015 07:09 12,8 C 99 % 1013,8 hPa 0,0 l/m 4,3 km/h (1 Bft) O-SO 120 0 min 0,000 mm 0,0 UV-I 21 W/m 12,6 C 12,8 C 7,9 km/h (2 Bft) 0,00 %
03.09.2015 07:14 12,8 C 99 % 1013,7 hPa 0,0 l/m 0,4 km/h (0 Bft) O 99 0 min 0,000 mm 0,0 UV-I 23 W/m 12,6 C 12,8 C 4,0 km/h (1 Bft) 0,00 %
03.09.2015 07:19 12,7 C 99 % 1013,6 hPa 0,0 l/m 0,4 km/h (0 Bft) O-SO 116 0 min 0,000 mm 0,0 UV-I 22 W/m 12,5 C 12,7 C 4,0 km/h (1 Bft) 0,00 %
03.09.2015 07:24 12,7 C 99 % 1013,7 hPa 0,0 l/m 0,0 km/h (0 Bft) NO 50 0 min 0,000 mm 0,0 UV-I 17 W/m 12,5 C 12,7 C 0,0 km/h (0 Bft) 0,00 %
03.09.2015 07:29 12,7 C 99 % 1013,9 hPa 0,0 l/m 0,0 km/h (0 Bft) NO 48 0 min 0,000 mm 0,0 UV-I 17 W/m 12,5 C 12,7 C 0,0 km/h (0 Bft) 0,00 %
03.09.2015 07:34 12,8 C 99 % 1014,1 hPa 0,0 l/m 0,0 km/h (0 Bft) O-NO 74 0 min 0,000 mm 0,0 UV-I 23 W/m 12,6 C 12,8 C 0,0 km/h (0 Bft) 0,00 %
03.09.2015 07:39 12,8 C 99 % 1014,2 hPa 0,0 l/m 0,0 km/h (0 Bft) NO 37 0 min 0,000 mm 0,0 UV-I 35 W/m 12,6 C 12,8 C 0,0 km/h (0 Bft) 0,00 %
03.09.2015 07:44 12,8 C 99 % 1014,3 hPa 0,0 l/m 1,8 km/h (1 Bft) O-SO 105 0 min 0,000 mm 0,0 UV-I 44 W/m 12,6 C 12,8 C 4,0 km/h (1 Bft) 0,00 %
03.09.2015 07:49 12,8 C 99 % 1014,2 hPa 0,0 l/m 0,7 km/h (0 Bft) O 96 0 min 0,000 mm 0,0 UV-I 53 W/m 12,6 C 12,8 C 4,0 km/h (1 Bft) 0,00 %
03.09.2015 07:54 12,8 C 99 % 1014,1 hPa 0,0 l/m 1,8 km/h (1 Bft) SO 125 0 min 0,000 mm 0,0 UV-I 63 W/m 12,6 C 12,8 C 4,0 km/h (1 Bft) 0,00 %
03.09.2015 07:59 12,8 C 99 % 1014,1 hPa 0,0 l/m 1,8 km/h (1 Bft) O-SO 114 0 min 0,000 mm 0,0 UV-I 70 W/m 12,6 C 12,8 C 4,0 km/h (1 Bft) 0,00 %
03.09.2015 08:04 12,8 C 99 % 1013,9 hPa 0,3 l/m 5,4 km/h (1 Bft) O 83 0 min 0,000 mm 0,0 UV-I 85 W/m 12,6 C 12,8 C 7,9 km/h (2 Bft) 0,00 %
03.09.2015 08:09 12,8 C 99 % 1014,0 hPa 0,0 l/m 1,8 km/h (1 Bft) S-SO 161 0 min 0,000 mm 0,0 UV-I 83 W/m 12,6 C 12,8 C 4,0 km/h (1 Bft) 0,00 %
03.09.2015 08:14 12,8 C 99 % 1014,0 hPa 0,0 l/m 0,7 km/h (0 Bft) O 85 0 min 0,000 mm 0,0 UV-I 70 W/m 12,6 C 12,8 C 4,0 km/h (1 Bft) 0,00 %
03.09.2015 08:19 12,8 C 99 % 1014,2 hPa 0,0 l/m 1,8 km/h (1 Bft) SO 131 0 min 0,000 mm 0,0 UV-I 58 W/m 12,6 C 12,8 C 4,0 km/h (1 Bft) 0,00 %
03.09.2015 08:24 12,8 C 99 % 1014,0 hPa 0,0 l/m 8,3 km/h (2 Bft) SO 130 0 min 0,000 mm 0,0 UV-I 67 W/m 12,6 C 11,6 C 15,8 km/h (3 Bft) 0,00 %
03.09.2015 08:29 12,8 C 99 % 1013,9 hPa 0,0 l/m 4,7 km/h (1 Bft) O-SO 119 0 min 0,000 mm 0,0 UV-I 67 W/m 12,6 C 12,8 C 7,9 km/h (2 Bft) 0,00 %
03.09.2015 08:34 12,8 C 99 % 1013,6 hPa 0,0 l/m 5,4 km/h (1 Bft) O 95 0 min 0,000 mm 0,0 UV-I 73 W/m 12,6 C 12,8 C 11,9 km/h (2 Bft) 0,00 %
03.09.2015 08:39 12,8 C 98 % 1013,6 hPa 0,0 l/m 2,2 km/h (1 Bft) O 89 0 min 0,000 mm 0,0 UV-I 83 W/m 12,5 C 12,8 C 7,9 km/h (2 Bft) 0,00 %
03.09.2015 08:44 12,8 C 98 % 1013,9 hPa 0,0 l/m 2,9 km/h (1 Bft) O 94 0 min 0,000 mm 1,0 UV-I 103 W/m 12,5 C 12,8 C 4,0 km/h (1 Bft) 0,00 %
03.09.2015 08:49 12,8 C 98 % 1013,8 hPa 0,0 l/m 6,8 km/h (2 Bft) SO 130 0 min 0,000 mm 1,0 UV-I 126 W/m 12,5 C 12,6 C 11,9 km/h (2 Bft) 0,00 %
03.09.2015 08:54 12,9 C 96 % 1013,7 hPa 0,0 l/m 6,5 km/h (2 Bft) SO 128 0 min 0,000 mm 1,0 UV-I 138 W/m 12,3 C 12,9 C 7,9 km/h (2 Bft) 0,00 %
03.09.2015 08:59 13,0 C 96 % 1013,7 hPa 0,0 l/m 2,2 km/h (1 Bft) NO 48 0 min 0,000 mm 1,0 UV-I 153 W/m 12,4 C 13,0 C 7,9 km/h (2 Bft) 0,00 %
03.09.2015 09:04 13,2 C 96 % 1013,7 hPa 0,0 l/m 0,0 km/h (0 Bft) O-NO 76 0 min 0,000 mm 1,0 UV-I 178 W/m 12,6 C 13,2 C 0,0 km/h (0 Bft) 0,00 %
03.09.2015 09:09 13,5 C 96 % 1013,5 hPa 0,0 l/m 0,0 km/h (0 Bft) NO 36 0 min 0,000 mm 1,0 UV-I 168 W/m 12,9 C 13,5 C 0,0 km/h (0 Bft) 0,00 %
03.09.2015 09:14 13,7 C 96 % 1013,8 hPa 0,0 l/m 0,0 km/h (0 Bft) O-NO 70 0 min 0,000 mm 1,0 UV-I 173 W/m 13,1 C 13,7 C 0,0 km/h (0 Bft) 0,00 %
03.09.2015 09:19 13,7 C 95 % 1013,8 hPa 0,0 l/m 0,4 km/h (0 Bft) O-NO 58 0 min 0,000 mm 1,0 UV-I 176 W/m 12,9 C 13,7 C 4,0 km/h (1 Bft) 0,00 %
03.09.2015 09:24 13,7 C 94 % 1013,5 hPa 0,0 l/m 0,0 km/h (0 Bft) N-NO 28 0 min 0,000 mm 1,0 UV-I 196 W/m 12,8 C 13,7 C 0,0 km/h (0 Bft) 0,00 %
03.09.2015 09:30 13,8 C 94 % 1013,4 hPa 0,0 l/m 0,4 km/h (0 Bft) N-NO 26 0 min 0,000 mm 1,0 UV-I 212 W/m 12,9 C 13,8 C 4,0 km/h (1 Bft) 0,00 %
03.09.2015 09:35 13,8 C 93 % 1013,4 hPa 0,0 l/m 0,0 km/h (0 Bft) O-NO 71 0 min 0,000 mm 1,0 UV-I 215 W/m 12,7 C 13,8 C 0,0 km/h (0 Bft) 0,00 %
03.09.2015 09:40 13,9 C 92 % 1013,6 hPa 0,0 l/m 0,4 km/h (0 Bft) NO 37 0 min 0,000 mm 1,0 UV-I 195 W/m 12,6 C 13,9 C 4,0 km/h (1 Bft) 0,00 %
03.09.2015 09:45 14,0 C 91 % 1013,6 hPa 0,0 l/m 4,0 km/h (1 Bft) O 90 0 min 0,000 mm 1,0 UV-I 208 W/m 12,6 C 14,0 C 7,9 km/h (2 Bft) 0,00 %
03.09.2015 09:50 14,0 C 91 % 1013,5 hPa 0,0 l/m 1,8 km/h (1 Bft) O 95 0 min 0,000 mm 1,0 UV-I 236 W/m 12,6 C 14,0 C 4,0 km/h (1 Bft) 0,00 %
03.09.2015 09:55 14,1 C 90 % 1013,5 hPa 0,0 l/m 7,2 km/h (2 Bft) SO 127 0 min 0,000 mm 1,0 UV-I 263 W/m 12,5 C 13,6 C 11,9 km/h (2 Bft) 0,00 %
03.09.2015 10:00 14,3 C 90 % 1013,1 hPa 0,0 l/m 2,2 km/h (1 Bft) NO 48 0 min 0,000 mm 1,0 UV-I 290 W/m 12,7 C 14,3 C 4,0 km/h (1 Bft) 0,00 %
03.09.2015 10:05 14,5 C 89 % 1013,1 hPa 0,0 l/m 1,8 km/h (1 Bft) O-SO 116 5 min 0,000 mm 1,0 UV-I 319 W/m 12,7 C 14,5 C 4,0 km/h (1 Bft) 0,00 %
03.09.2015 10:10 14,7 C 86 % 1013,2 hPa 0,0 l/m 3,2 km/h (1 Bft) O-SO 103 0 min 0,000 mm 1,0 UV-I 309 W/m 12,4 C 14,7 C 7,9 km/h (2 Bft) 0,00 %
03.09.2015 10:15 14,9 C 84 % 1013,0 hPa 0,0 l/m 4,0 km/h (1 Bft) W-SW 255 5 min 0,000 mm 1,0 UV-I 331 W/m 12,2 C 14,9 C 7,9 km/h (2 Bft) 0,00 %
03.09.2015 10:20 14,9 C 82 % 1012,9 hPa 0,0 l/m 2,2 km/h (1 Bft) O-SO 109 5 min 0,000 mm 2,0 UV-I 379 W/m 11,9 C 14,9 C 4,0 km/h (1 Bft) 0,00 %
03.09.2015 10:25 15,0 C 80 % 1013,0 hPa 0,0 l/m 6,5 km/h (2 Bft) O 83 5 min 0,000 mm 2,0 UV-I 420 W/m 11,6 C 15,0 C 7,9 km/h (2 Bft) 0,00 %
03.09.2015 10:30 15,3 C 81 % 1012,9 hPa 0,0 l/m 0,4 km/h (0 Bft) O 81 5 min 0,000 mm 2,0 UV-I 412 W/m 12,1 C 15,3 C 4,0 km/h (1 Bft) 0,00 %
03.09.2015 10:35 15,6 C 79 % 1013,2 hPa 0,0 l/m 0,0 km/h (0 Bft) N-NO 32 0 min 0,000 mm 2,0 UV-I 319 W/m 12,0 C 15,6 C 0,0 km/h (0 Bft) 0,00 %
03.09.2015 10:40 15,9 C 78 % 1013,0 hPa 0,0 l/m 2,9 km/h (1 Bft) O-NO 70 0 min 0,000 mm 2,0 UV-I 327 W/m 12,1 C 15,9 C 7,9 km/h (2 Bft) 0,00 %
03.09.2015 10:45 15,9 C 78 % 1012,9 hPa 0,0 l/m 3,2 km/h (1 Bft) O-NO 71 5 min 0,000 mm 2,0 UV-I 380 W/m 12,1 C 15,9 C 7,9 km/h (2 Bft) 0,00 %
03.09.2015 10:50 16,0 C 78 % 1013,0 hPa 0,0 l/m 0,7 km/h (0 Bft) N 356 5 min 0,000 mm 2,0 UV-I 408 W/m 12,2 C 16,0 C 4,0 km/h (1 Bft) 0,00 %
03.09.2015 10:55 16,2 C 76 % 1012,7 hPa 0,0 l/m 4,3 km/h (1 Bft) N-NW 343 5 min 0,000 mm 2,0 UV-I 473 W/m 12,0 C 16,2 C 7,9 km/h (2 Bft) 0,00 %
03.09.2015 11:00 16,6 C 75 % 1012,8 hPa 0,0 l/m 4,7 km/h (1 Bft) N-NO 29 5 min 0,000 mm 2,0 UV-I 429 W/m 12,1 C 16,6 C 7,9 km/h (2 Bft) 0,00 %
03.09.2015 11:05 16,7 C 74 % 1012,9 hPa 0,0 l/m 2,2 km/h (1 Bft) O-NO 61 0 min 0,000 mm 2,0 UV-I 335 W/m 12,0 C 16,7 C 4,0 km/h (1 Bft) 0,00 %
03.09.2015 11:10 16,6 C 75 % 1012,7 hPa 0,0 l/m 2,9 km/h (1 Bft) SO 144 5 min 0,000 mm 2,0 UV-I 430 W/m 12,1 C 16,6 C 4,0 km/h (1 Bft) 0,00 %
03.09.2015 11:15 16,8 C 74 % 1012,7 hPa 0,0 l/m 5,4 km/h (1 Bft) NO 49 5 min 0,000 mm 2,0 UV-I 647 W/m 12,1 C 16,8 C 7,9 km/h (2 Bft) 0,00 %
03.09.2015 11:20 17,2 C 73 % 1012,7 hPa 0,0 l/m 1,4 km/h (1 Bft) NO 44 5 min 0,000 mm 2,0 UV-I 522 W/m 12,3 C 17,2 C 4,0 km/h (1 Bft) 0,00 %
03.09.2015 11:25 17,6 C 72 % 1012,7 hPa 0,0 l/m 2,2 km/h (1 Bft) O 83 0 min 0,000 mm 1,0 UV-I 324 W/m 12,5 C 17,6 C 4,0 km/h (1 Bft) 0,00 %
03.09.2015 11:30 17,6 C 73 % 1012,9 hPa 0,0 l/m 5,4 km/h (1 Bft) NO 40 0 min 0,000 mm 1,0 UV-I 283 W/m 12,7 C 17,6 C 7,9 km/h (2 Bft) 0,00 %
03.09.2015 11:35 17,3 C 72 % 1012,9 hPa 0,0 l/m 2,9 km/h (1 Bft) O 82 0 min 0,000 mm 1,0 UV-I 272 W/m 12,2 C 17,3 C 7,9 km/h (2 Bft) 0,00 %
03.09.2015 11:40 17,0 C 73 % 1013,0 hPa 0,0 l/m 0,0 km/h (0 Bft) O-NO 68 0 min 0,000 mm 1,0 UV-I 248 W/m 12,1 C 17,0 C 0,0 km/h (0 Bft) 0,00 %
03.09.2015 11:45 16,8 C 74 % 1012,8 hPa 0,0 l/m 0,0 km/h (0 Bft) O-NO 73 0 min 0,000 mm 1,0 UV-I 224 W/m 12,1 C 16,8 C 0,0 km/h (0 Bft) 0,00 %
03.09.2015 11:50 16,6 C 74 % 1012,7 hPa 0,0 l/m 5,4 km/h (1 Bft) O 96 0 min 0,000 mm 1,0 UV-I 233 W/m 11,9 C 16,6 C 11,9 km/h (2 Bft) 0,00 %
03.09.2015 11:55 16,6 C 75 % 1012,7 hPa 0,0 l/m 2,9 km/h (1 Bft) S 180 0 min 0,000 mm 1,0 UV-I 273 W/m 12,1 C 16,6 C 4,0 km/h (1 Bft) 0,00 %
03.09.2015 12:00 16,6 C 75 % 1012,4 hPa 0,0 l/m 4,7 km/h (1 Bft) O 100 0 min 0,000 mm 1,0 UV-I 293 W/m 12,1 C 16,6 C 7,9 km/h (2 Bft) 0,00 %
03.09.2015 12:05 16,7 C 72 % 1012,5 hPa 0,0 l/m 4,7 km/h (1 Bft) NO 47 0 min 0,000 mm 1,0 UV-I 289 W/m 11,6 C 16,7 C 7,9 km/h (2 Bft) 0,00 %
03.09.2015 12:10 16,8 C 72 % 1012,5 hPa 0,0 l/m 1,4 km/h (1 Bft) S 182 0 min 0,000 mm 1,0 UV-I 285 W/m 11,7 C 16,8 C 4,0 km/h (1 Bft) 0,00 %
03.09.2015 12:15 16,9 C 73 % 1012,6 hPa 0,0 l/m 1,4 km/h (1 Bft) N-NO 23 0 min 0,000 mm 1,0 UV-I 304 W/m 12,0 C 16,9 C 4,0 km/h (1 Bft) 0,00 %
03.09.2015 12:20 17,0 C 72 % 1012,5 hPa 0,0 l/m 1,8 km/h (1 Bft) NO 51 0 min 0,000 mm 1,0 UV-I 286 W/m 11,9 C 17,0 C 4,0 km/h (1 Bft) 0,00 %
03.09.2015 12:25 17,0 C 72 % 1012,5 hPa 0,0 l/m 0,0 km/h (0 Bft) N 350 0 min 0,000 mm 1,0 UV-I 250 W/m 11,9 C 17,0 C 0,0 km/h (0 Bft) 0,00 %
03.09.2015 12:30 17,0 C 72 % 1012,5 hPa 0,0 l/m 0,4 km/h (0 Bft) O-NO 72 0 min 0,000 mm 1,0 UV-I 257 W/m 11,9 C 17,0 C 4,0 km/h (1 Bft) 0,00 %
03.09.2015 12:35 17,1 C 72 % 1012,3 hPa 0,0 l/m 0,7 km/h (0 Bft) O-NO 76 0 min 0,000 mm 1,0 UV-I 287 W/m 12,0 C 17,1 C 4,0 km/h (1 Bft) 0,00 %
03.09.2015 12:40 17,3 C 72 % 1012,3 hPa 0,0 l/m 6,8 km/h (2 Bft) SO 127 0 min 0,000 mm 1,0 UV-I 280 W/m 12,2 C 17,1 C 11,9 km/h (2 Bft) 0,00 %
03.09.2015 12:45 17,5 C 72 % 1012,2 hPa 0,0 l/m 0,4 km/h (0 Bft) O 81 0 min 0,000 mm 1,0 UV-I 303 W/m 12,4 C 17,5 C 4,0 km/h (1 Bft) 0,00 %
03.09.2015 12:50 17,5 C 72 % 1012,4 hPa 0,0 l/m 0,7 km/h (0 Bft) NO 44 0 min 0,000 mm 1,0 UV-I 300 W/m 12,4 C 17,5 C 4,0 km/h (1 Bft) 0,00 %
03.09.2015 12:55 17,6 C 72 % 1012,5 hPa 0,0 l/m 4,7 km/h (1 Bft) O-NO 68 0 min 0,000 mm 2,0 UV-I 354 W/m 12,5 C 17,6 C 7,9 km/h (2 Bft) 0,00 %
03.09.2015 13:00 17,8 C 69 % 1012,6 hPa 0,0 l/m 0,0 km/h (0 Bft) N 355 0 min 0,000 mm 2,0 UV-I 351 W/m 12,0 C 17,8 C 0,0 km/h (0 Bft) 0,00 %
03.09.2015 13:05 18,1 C 69 % 1012,1 hPa 0,0 l/m 2,2 km/h (1 Bft) N-NW 343 0 min 0,000 mm 2,0 UV-I 359 W/m 12,3 C 18,1 C 4,0 km/h (1 Bft) 0,00 %
03.09.2015 13:10 18,3 C 69 % 1012,2 hPa 0,0 l/m 6,5 km/h (2 Bft) O-SO 110 5 min 0,000 mm 2,0 UV-I 610 W/m 12,5 C 18,3 C 7,9 km/h (2 Bft) 0,00 %
03.09.2015 13:15 18,5 C 68 % 1012,3 hPa 0,0 l/m 0,4 km/h (0 Bft) N 350 0 min 0,000 mm 2,0 UV-I 400 W/m 12,5 C 18,5 C 4,0 km/h (1 Bft) 0,00 %
03.09.2015 13:20 18,7 C 69 % 1012,4 hPa 0,0 l/m 2,9 km/h (1 Bft) N 11 0 min 0,000 mm 1,0 UV-I 229 W/m 12,9 C 18,7 C 4,0 km/h (1 Bft) 0,00 %
03.09.2015 13:25 18,6 C 69 % 1012,5 hPa 0,0 l/m 0,7 km/h (0 Bft) N-NW 344 0 min 0,000 mm 1,0 UV-I 196 W/m 12,8 C 18,6 C 4,0 km/h (1 Bft) 0,00 %
03.09.2015 13:30 18,2 C 70 % 1012,6 hPa 0,0 l/m 0,0 km/h (0 Bft) O-NO 70 0 min 0,000 mm 1,0 UV-I 200 W/m 12,6 C 18,2 C 0,0 km/h (0 Bft) 0,00 %
03.09.2015 13:35 18,0 C 71 % 1012,6 hPa 0,0 l/m 0,0 km/h (0 Bft) N 4 0 min 0,000 mm 1,0 UV-I 219 W/m 12,7 C 18,0 C 0,0 km/h (0 Bft) 0,00 %
03.09.2015 13:40 18,0 C 71 % 1012,6 hPa 0,0 l/m 0,0 km/h (0 Bft) N-NW 347 0 min 0,000 mm 1,0 UV-I 186 W/m 12,7 C 18,0 C 0,0 km/h (0 Bft) 0,00 %
03.09.2015 13:45 18,0 C 71 % 1012,7 hPa 0,0 l/m 0,0 km/h (0 Bft) NO 45 0 min 0,000 mm 1,0 UV-I 184 W/m 12,7 C 18,0 C 0,0 km/h (0 Bft) 0,00 %
03.09.2015 13:50 18,0 C 70 % 1012,7 hPa 0,0 l/m 0,0 km/h (0 Bft) NO 37 0 min 0,000 mm 1,0 UV-I 140 W/m 12,4 C 18,0 C 0,0 km/h (0 Bft) 0,00 %
03.09.2015 13:55 17,9 C 72 % 1012,2 hPa 0,0 l/m 1,4 km/h (1 Bft) NO 48 0 min 0,000 mm 1,0 UV-I 190 W/m 12,8 C 17,9 C 4,0 km/h (1 Bft) 0,00 %
03.09.2015 14:00 17,8 C 72 % 1011,9 hPa 0,0 l/m 0,7 km/h (0 Bft) O-NO 69 0 min 0,000 mm 1,0 UV-I 238 W/m 12,7 C 17,8 C 4,0 km/h (1 Bft) 0,00 %
03.09.2015 14:05 17,8 C 71 % 1011,9 hPa 0,0 l/m 0,0 km/h (0 Bft) NO 38 0 min 0,000 mm 1,0 UV-I 312 W/m 12,5 C 17,8 C 0,0 km/h (0 Bft) 0,00 %
03.09.2015 14:10 18,1 C 70 % 1012,1 hPa 0,0 l/m 1,8 km/h (1 Bft) O-SO 108 0 min 0,000 mm 1,0 UV-I 318 W/m 12,5 C 18,1 C 4,0 km/h (1 Bft) 0,00 %
03.09.2015 14:15 18,6 C 67 % 1012,3 hPa 0,0 l/m 0,0 km/h (0 Bft) O-NO 59 0 min 0,000 mm 1,0 UV-I 278 W/m 12,3 C 18,6 C 0,0 km/h (0 Bft) 0,00 %
03.09.2015 14:20 19,0 C 66 % 1012,5 hPa 0,0 l/m 0,0 km/h (0 Bft) N-NO 15 0 min 0,000 mm 1,0 UV-I 231 W/m 12,5 C 19,0 C 0,0 km/h (0 Bft) 0,00 %
03.09.2015 14:25 19,3 C 64 % 1012,3 hPa 0,0 l/m 0,0 km/h (0 Bft) N-NO 30 0 min 0,000 mm 1,0 UV-I 246 W/m 12,3 C 19,3 C 0,0 km/h (0 Bft) 0,00 %
03.09.2015 14:30 19,3 C 65 % 1012,5 hPa 0,0 l/m 0,7 km/h (0 Bft) O-SO 102 0 min 0,000 mm 1,0 UV-I 214 W/m 12,6 C 19,3 C 4,0 km/h (1 Bft) 0,00 %
03.09.2015 14:35 19,1 C 66 % 1012,6 hPa 0,0 l/m 0,0 km/h (0 Bft) O-NO 76 0 min 0,000 mm 1,0 UV-I 170 W/m 12,6 C 19,1 C 0,0 km/h (0 Bft) 0,00 %
03.09.2015 14:40 19,1 C 65 % 1012,1 hPa 0,0 l/m 0,0 km/h (0 Bft) N-NO 21 0 min 0,000 mm 1,0 UV-I 192 W/m 12,4 C 19,1 C 0,0 km/h (0 Bft) 0,00 %
03.09.2015 14:45 19,0 C 67 % 1012,2 hPa 0,0 l/m 0,0 km/h (0 Bft) N-NO 32 0 min 0,000 mm 1,0 UV-I 286 W/m 12,7 C 19,0 C 0,0 km/h (0 Bft) 0,00 %
03.09.2015 14:50 19,0 C 66 % 1012,1 hPa 0,0 l/m 0,0 km/h (0 Bft) NO 48 0 min 0,000 mm 1,0 UV-I 322 W/m 12,5 C 19,0 C 0,0 km/h (0 Bft) 0,00 %
03.09.2015 14:55 19,3 C 67 % 1012,0 hPa 0,0 l/m 0,0 km/h (0 Bft) W-SW 256 0 min 0,000 mm 1,0 UV-I 244 W/m 13,0 C 19,3 C 0,0 km/h (0 Bft) 0,00 %
03.09.2015 15:00 19,5 C 65 % 1012,4 hPa 0,0 l/m 0,0 km/h (0 Bft) N 349 0 min 0,000 mm 1,0 UV-I 178 W/m 12,7 C 19,5 C 0,0 km/h (0 Bft) 0,00 %
03.09.2015 15:05 19,5 C 64 % 1012,5 hPa 0,0 l/m 0,0 km/h (0 Bft) N 352 0 min 0,000 mm 1,0 UV-I 185 W/m 12,5 C 19,5 C 0,0 km/h (0 Bft) 0,00 %
03.09.2015 15:10 19,3 C 65 % 1012,7 hPa 0,0 l/m 0,0 km/h (0 Bft) NO 34 0 min 0,000 mm 1,0 UV-I 151 W/m 12,6 C 19,3 C 0,0 km/h (0 Bft) 0,00 %
03.09.2015 15:15 19,2 C 66 % 1012,4 hPa 0,0 l/m 0,0 km/h (0 Bft) NO 39 0 min 0,000 mm 1,0 UV-I 136 W/m 12,7 C 19,2 C 0,0 km/h (0 Bft) 0,00 %
03.09.2015 15:20 19,0 C 68 % 1012,0 hPa 0,0 l/m 0,0 km/h (0 Bft) N 349 0 min 0,000 mm 1,0 UV-I 215 W/m 13,0 C 19,0 C 0,0 km/h (0 Bft) 0,00 %
03.09.2015 15:25 18,9 C 69 % 1011,9 hPa 0,0 l/m 0,0 km/h (0 Bft) NO 44 0 min 0,000 mm 1,0 UV-I 276 W/m 13,1 C 18,9 C 0,0 km/h (0 Bft) 0,00 %
03.09.2015 15:30 18,9 C 67 % 1012,4 hPa 0,0 l/m 0,0 km/h (0 Bft) O 82 0 min 0,000 mm 1,0 UV-I 134 W/m 12,6 C 18,9 C 0,0 km/h (0 Bft) 0,00 %
03.09.2015 15:35 18,9 C 69 % 1012,4 hPa 0,0 l/m 0,0 km/h (0 Bft) N 354 0 min 0,000 mm 1,0 UV-I 109 W/m 13,1 C 18,9 C 0,0 km/h (0 Bft) 0,00 %
03.09.2015 15:40 18,8 C 70 % 1012,4 hPa 0,0 l/m 0,4 km/h (0 Bft) W 266 0 min 0,000 mm 1,0 UV-I 124 W/m 13,2 C 18,8 C 4,0 km/h (1 Bft) 0,00 %
03.09.2015 15:45 18,6 C 70 % 1012,1 hPa 0,0 l/m 0,0 km/h (0 Bft) N-NO 20 0 min 0,000 mm 1,0 UV-I 175 W/m 13,0 C 18,6 C 0,0 km/h (0 Bft) 0,00 %
03.09.2015 15:50 18,6 C 69 % 1012,0 hPa 0,0 l/m 0,0 km/h (0 Bft) NO 44 0 min 0,000 mm 1,0 UV-I 226 W/m 12,8 C 18,6 C 0,0 km/h (0 Bft) 0,00 %
03.09.2015 15:55 18,7 C 67 % 1011,9 hPa 0,0 l/m 0,0 km/h (0 Bft) NO 49 0 min 0,000 mm 1,0 UV-I 224 W/m 12,4 C 18,7 C 0,0 km/h (0 Bft) 0,00 %
03.09.2015 16:00 18,9 C 65 % 1011,5 hPa 0,0 l/m 0,0 km/h (0 Bft) O-NO 74 0 min 0,000 mm 1,0 UV-I 303 W/m 12,2 C 18,9 C 0,0 km/h (0 Bft) 0,00 %
03.09.2015 16:05 19,2 C 66 % 1011,4 hPa 0,0 l/m 0,0 km/h (0 Bft) NO 34 0 min 0,000 mm 1,0 UV-I 300 W/m 12,7 C 19,2 C 0,0 km/h (0 Bft) 0,00 %
03.09.2015 16:10 19,5 C 64 % 1011,5 hPa 0,0 l/m 0,0 km/h (0 Bft) N-NO 29 0 min 0,000 mm 1,0 UV-I 283 W/m 12,5 C 19,5 C 0,0 km/h (0 Bft) 0,00 %
03.09.2015 16:15 19,7 C 65 % 1011,7 hPa 0,0 l/m 0,0 km/h (0 Bft) NO 40 0 min 0,000 mm 1,0 UV-I 175 W/m 12,9 C 19,7 C 0,0 km/h (0 Bft) 0,00 %
03.09.2015 16:20 19,7 C 67 % 1011,9 hPa 0,0 l/m 0,0 km/h (0 Bft) N-NW 348 0 min 0,000 mm 1,0 UV-I 182 W/m 13,4 C 19,7 C 0,0 km/h (0 Bft) 0,00 %
03.09.2015 16:25 19,5 C 70 % 1011,8 hPa 0,0 l/m 0,0 km/h (0 Bft) O 84 0 min 0,000 mm 1,0 UV-I 228 W/m 13,9 C 19,5 C 0,0 km/h (0 Bft) 0,00 %
03.09.2015 16:30 19,3 C 68 % 1011,6 hPa 0,0 l/m 0,0 km/h (0 Bft) NO 34 0 min 0,000 mm 1,0 UV-I 209 W/m 13,2 C 19,3 C 0,0 km/h (0 Bft) 0,00 %
03.09.2015 16:35 19,2 C 69 % 1011,7 hPa 0,0 l/m 0,0 km/h (0 Bft) NO 49 0 min 0,000 mm 1,0 UV-I 109 W/m 13,4 C 19,2 C 0,0 km/h (0 Bft) 0,00 %
03.09.2015 16:40 19,1 C 69 % 1011,7 hPa 0,0 l/m 0,0 km/h (0 Bft) NO 36 0 min 0,000 mm 0,0 UV-I 101 W/m 13,3 C 19,1 C 0,0 km/h (0 Bft) 0,00 %
03.09.2015 16:45 18,8 C 70 % 1011,6 hPa 0,0 l/m 0,0 km/h (0 Bft) N-NO 32 0 min 0,000 mm 1,0 UV-I 131 W/m 13,2 C 18,8 C 0,0 km/h (0 Bft) 0,00 %
03.09.2015 16:50 18,6 C 71 % 1011,5 hPa 0,0 l/m 1,8 km/h (1 Bft) W-NW 282 0 min 0,000 mm 1,0 UV-I 131 W/m 13,2 C 18,6 C 4,0 km/h (1 Bft) 0,00 %
03.09.2015 16:55 18,4 C 72 % 1011,7 hPa 0,0 l/m 0,0 km/h (0 Bft) N 353 0 min 0,000 mm 1,0 UV-I 136 W/m 13,3 C 18,4 C 0,0 km/h (0 Bft) 0,00 %
03.09.2015 17:00 18,3 C 71 % 1011,3 hPa 0,0 l/m 0,0 km/h (0 Bft) NO 37 0 min 0,000 mm 1,0 UV-I 171 W/m 12,9 C 18,3 C 0,0 km/h (0 Bft) 0,00 %
03.09.2015 17:05 18,4 C 72 % 1011,6 hPa 0,0 l/m 0,0 km/h (0 Bft) NO 50 0 min 0,000 mm 0,0 UV-I 100 W/m 13,3 C 18,4 C 0,0 km/h (0 Bft) 0,00 %
03.09.2015 17:10 18,5 C 72 % 1011,8 hPa 0,0 l/m 0,0 km/h (0 Bft) NO 41 0 min 0,000 mm 0,0 UV-I 78 W/m 13,4 C 18,5 C 0,0 km/h (0 Bft) 0,00 %
03.09.2015 17:15 18,4 C 72 % 1011,7 hPa 0,0 l/m 0,0 km/h (0 Bft) N-NW 331 0 min 0,000 mm 0,0 UV-I 70 W/m 13,3 C 18,4 C 0,0 km/h (0 Bft) 0,00 %
03.09.2015 17:20 18,2 C 73 % 1011,9 hPa 0,0 l/m 0,0 km/h (0 Bft) N-NO 32 0 min 0,000 mm 0,0 UV-I 57 W/m 13,3 C 18,2 C 0,0 km/h (0 Bft) 0,00 %
03.09.2015 17:25 18,1 C 72 % 1011,9 hPa 0,0 l/m 0,0 km/h (0 Bft) NO 45 0 min 0,000 mm 0,0 UV-I 38 W/m 13,0 C 18,1 C 0,0 km/h (0 Bft) 0,00 %
03.09.2015 17:30 18,0 C 75 % 1012,0 hPa 0,0 l/m 0,0 km/h (0 Bft) NO 45 0 min 0,000 mm 0,0 UV-I 45 W/m 13,5 C 18,0 C 0,0 km/h (0 Bft) 0,00 %
03.09.2015 17:35 17,8 C 77 % 1011,9 hPa 0,0 l/m 0,0 km/h (0 Bft) N-NW 346 0 min 0,000 mm 0,0 UV-I 38 W/m 13,7 C 17,8 C 0,0 km/h (0 Bft) 0,00 %
03.09.2015 17:40 17,6 C 78 % 1011,9 hPa 0,0 l/m 0,0 km/h (0 Bft) N-NW 331 0 min 0,000 mm 0,0 UV-I 43 W/m 13,7 C 17,6 C 0,0 km/h (0 Bft) 0,00 %
03.09.2015 17:45 17,4 C 81 % 1011,8 hPa 0,0 l/m 0,0 km/h (0 Bft) N-NO 16 0 min 0,000 mm 0,0 UV-I 45 W/m 14,1 C 17,4 C 0,0 km/h (0 Bft) 0,00 %
03.09.2015 17:50 17,3 C 82 % 1011,8 hPa 0,0 l/m 0,0 km/h (0 Bft) N-NO 16 0 min 0,000 mm 0,0 UV-I 37 W/m 14,2 C 17,3 C 0,0 km/h (0 Bft) 0,00 %
03.09.2015 17:55 17,2 C 83 % 1011,9 hPa 0,0 l/m 0,0 km/h (0 Bft) NO 49 0 min 0,000 mm 0,0 UV-I 22 W/m 14,3 C 17,2 C 0,0 km/h (0 Bft) 0,00 %
03.09.2015 18:00 17,0 C 84 % 1012,0 hPa 0,0 l/m 1,4 km/h (1 Bft) N-NW 327 0 min 0,000 mm 0,0 UV-I 11 W/m 14,3 C 17,0 C 4,0 km/h (1 Bft) 0,00 %
03.09.2015 18:05 16,7 C 86 % 1012,0 hPa 0,3 l/m 4,3 km/h (1 Bft) W-SW 256 0 min 0,000 mm 0,0 UV-I 21 W/m 14,3 C 16,7 C 7,9 km/h (2 Bft) 0,00 %
03.09.2015 18:10 16,4 C 88 % 1012,0 hPa 0,3 l/m 0,7 km/h (0 Bft) W-NW 303 0 min 0,000 mm 0,0 UV-I 26 W/m 14,4 C 16,4 C 4,0 km/h (1 Bft) 0,00 %
03.09.2015 18:15 16,1 C 89 % 1012,0 hPa 0,3 l/m 1,8 km/h (1 Bft) W-SW 253 0 min 0,000 mm 0,0 UV-I 29 W/m 14,3 C 16,1 C 4,0 km/h (1 Bft) 0,00 %
03.09.2015 18:20 15,9 C 90 % 1011,9 hPa 0,3 l/m 0,0 km/h (0 Bft) O-NO 63 0 min 0,000 mm 0,0 UV-I 36 W/m 14,3 C 15,9 C 0,0 km/h (0 Bft) 0,00 %
03.09.2015 18:25 15,7 C 91 % 1011,8 hPa 0,0 l/m 0,0 km/h (0 Bft) O-NO 58 0 min 0,000 mm 0,0 UV-I 38 W/m 14,2 C 15,7 C 0,0 km/h (0 Bft) 0,00 %
03.09.2015 18:30 15,6 C 92 % 1012,0 hPa 0,3 l/m 0,0 km/h (0 Bft) NO 47 0 min 0,000 mm 0,0 UV-I 33 W/m 14,3 C 15,6 C 0,0 km/h (0 Bft) 0,00 %
03.09.2015 18:35 15,6 C 92 % 1012,0 hPa 0,0 l/m 0,0 km/h (0 Bft) NW 322 0 min 0,000 mm 0,0 UV-I 31 W/m 14,3 C 15,6 C 0,0 km/h (0 Bft) 0,00 %
03.09.2015 18:40 15,5 C 93 % 1011,8 hPa 0,0 l/m 0,0 km/h (0 Bft) N-NO 19 0 min 0,000 mm 0,0 UV-I 26 W/m 14,4 C 15,5 C 0,0 km/h (0 Bft) 0,00 %
03.09.2015 18:45 15,4 C 93 % 1012,1 hPa 0,0 l/m 0,0 km/h (0 Bft) N 354 0 min 0,000 mm 0,0 UV-I 27 W/m 14,3 C 15,4 C 0,0 km/h (0 Bft) 0,00 %
03.09.2015 18:50 15,4 C 94 % 1012,1 hPa 0,0 l/m 0,0 km/h (0 Bft) N-NW 347 0 min 0,000 mm 0,0 UV-I 25 W/m 14,4 C 15,4 C 0,0 km/h (0 Bft) 0,00 %
03.09.2015 18:55 15,3 C 94 % 1011,9 hPa 0,0 l/m 0,0 km/h (0 Bft) NO 38 0 min 0,000 mm 0,0 UV-I 16 W/m 14,3 C 15,3 C 0,0 km/h (0 Bft) 0,00 %
03.09.2015 19:00 15,3 C 94 % 1011,9 hPa 0,3 l/m 0,0 km/h (0 Bft) NO 53 0 min 0,000 mm 0,0 UV-I 6 W/m 14,3 C 15,3 C 0,0 km/h (0 Bft) 0,00 %
03.09.2015 19:05 15,2 C 94 % 1011,7 hPa 0,0 l/m 0,0 km/h (0 Bft) N-NW 346 0 min 0,000 mm 0,0 UV-I 3 W/m 14,2 C 15,2 C 0,0 km/h (0 Bft) 0,00 %
03.09.2015 19:10 15,2 C 95 % 1011,8 hPa 0,0 l/m 0,0 km/h (0 Bft) O-NO 69 0 min 0,000 mm 0,0 UV-I 2 W/m 14,4 C 15,2 C 0,0 km/h (0 Bft) 0,00 %
03.09.2015 19:15 15,2 C 95 % 1011,8 hPa 0,0 l/m 0,0 km/h (0 Bft) NO 44 0 min 0,000 mm 0,0 UV-I 0 W/m 14,4 C 15,2 C 0,0 km/h (0 Bft) 0,00 %
03.09.2015 19:20 15,2 C 95 % 1012,0 hPa 0,0 l/m 0,0 km/h (0 Bft) N 351 0 min 0,000 mm 0,0 UV-I 0 W/m 14,4 C 15,2 C 0,0 km/h (0 Bft) 0,00 %
03.09.2015 19:25 15,2 C 95 % 1011,9 hPa 0,0 l/m 0,0 km/h (0 Bft) NO 54 0 min 0,000 mm 0,0 UV-I 0 W/m 14,4 C 15,2 C 0,0 km/h (0 Bft) 0,00 %
03.09.2015 19:30 15,1 C 96 % 1012,1 hPa 0,3 l/m 0,0 km/h (0 Bft) NO 41 0 min 0,000 mm 0,0 UV-I 0 W/m 14,5 C 15,1 C 0,0 km/h (0 Bft) 0,00 %
03.09.2015 19:35 15,1 C 96 % 1012,2 hPa 0,0 l/m 0,0 km/h (0 Bft) NO 34 0 min 0,000 mm 0,0 UV-I 0 W/m 14,5 C 15,1 C 0,0 km/h (0 Bft) 0,00 %
03.09.2015 19:40 15,1 C 96 % 1012,2 hPa 0,0 l/m 0,0 km/h (0 Bft) N-NO 31 0 min 0,000 mm 0,0 UV-I 0 W/m 14,5 C 15,1 C 0,0 km/h (0 Bft) 0,00 %
03.09.2015 19:45 15,1 C 96 % 1012,3 hPa 0,0 l/m 0,0 km/h (0 Bft) NO 35 0 min 0,000 mm 0,0 UV-I 0 W/m 14,5 C 15,1 C 0,0 km/h (0 Bft) 0,00 %
03.09.2015 19:50 15,1 C 96 % 1012,4 hPa 0,0 l/m 0,0 km/h (0 Bft) NO 41 0 min 0,000 mm 0,0 UV-I 0 W/m 14,5 C 15,1 C 0,0 km/h (0 Bft) 0,00 %
03.09.2015 19:55 15,1 C 96 % 1012,6 hPa 0,0 l/m 0,0 km/h (0 Bft) NO 42 0 min 0,000 mm 0,0 UV-I 0 W/m 14,5 C 15,1 C 0,0 km/h (0 Bft) 0,00 %
03.09.2015 20:00 15,2 C 97 % 1012,5 hPa 0,0 l/m 0,0 km/h (0 Bft) N-NO 31 0 min 0,000 mm 0,0 UV-I 0 W/m 14,7 C 15,2 C 0,0 km/h (0 Bft) 0,00 %
03.09.2015 20:05 15,2 C 97 % 1012,6 hPa 0,0 l/m 0,0 km/h (0 Bft) NO 48 0 min 0,000 mm 0,0 UV-I 0 W/m 14,7 C 15,2 C 0,0 km/h (0 Bft) 0,00 %
03.09.2015 20:10 15,2 C 97 % 1012,8 hPa 0,0 l/m 0,0 km/h (0 Bft) N 350 0 min 0,000 mm 0,0 UV-I 0 W/m 14,7 C 15,2 C 0,0 km/h (0 Bft) 0,00 %
03.09.2015 20:15 15,2 C 97 % 1012,5 hPa 0,0 l/m 1,4 km/h (1 Bft) W-SW 252 0 min 0,000 mm 0,0 UV-I 0 W/m 14,7 C 15,2 C 4,0 km/h (1 Bft) 0,00 %
03.09.2015 20:20 15,2 C 97 % 1012,4 hPa 0,0 l/m 6,5 km/h (2 Bft) W 278 0 min 0,000 mm 0,0 UV-I 0 W/m 14,7 C 15,2 C 11,9 km/h (2 Bft) 0,00 %
03.09.2015 20:25 15,1 C 97 % 1012,6 hPa 0,0 l/m 0,0 km/h (0 Bft) NO 43 0 min 0,000 mm 0,0 UV-I 0 W/m 14,6 C 15,1 C 0,0 km/h (0 Bft) 0,00 %
03.09.2015 20:30 15,0 C 97 % 1012,4 hPa 0,0 l/m 0,0 km/h (0 Bft) W 260 0 min 0,000 mm 0,0 UV-I 0 W/m 14,5 C 15,0 C 0,0 km/h (0 Bft) 0,00 %
03.09.2015 20:35 14,9 C 98 % 1012,4 hPa 0,0 l/m 0,0 km/h (0 Bft) O-NO 62 0 min 0,000 mm 0,0 UV-I 0 W/m 14,6 C 14,9 C 0,0 km/h (0 Bft) 0,00 %
03.09.2015 20:40 14,8 C 98 % 1012,4 hPa 0,0 l/m 1,8 km/h (1 Bft) N 355 0 min 0,000 mm 0,0 UV-I 0 W/m 14,5 C 14,8 C 4,0 km/h (1 Bft) 0,00 %
03.09.2015 20:45 14,7 C 97 % 1012,5 hPa 0,3 l/m 1,8 km/h (1 Bft) N-NO 29 0 min 0,000 mm 0,0 UV-I 0 W/m 14,2 C 14,7 C 4,0 km/h (1 Bft) 0,00 %
03.09.2015 20:50 14,7 C 97 % 1012,7 hPa 0,3 l/m 1,4 km/h (1 Bft) S 191 0 min 0,000 mm 0,0 UV-I 0 W/m 14,2 C 14,7 C 4,0 km/h (1 Bft) 0,00 %
03.09.2015 20:55 14,6 C 97 % 1013,0 hPa 1,5 l/m 1,4 km/h (1 Bft) O-NO 71 0 min 0,000 mm 0,0 UV-I 0 W/m 14,1 C 14,6 C 4,0 km/h (1 Bft) 0,00 %
03.09.2015 21:00 14,5 C 97 % 1013,0 hPa 1,8 l/m 0,7 km/h (0 Bft) NO 36 0 min 0,000 mm 0,0 UV-I 0 W/m 14,0 C 14,5 C 4,0 km/h (1 Bft) 0,00 %
03.09.2015 21:05 14,5 C 97 % 1013,3 hPa 1,5 l/m 0,7 km/h (0 Bft) N 6 0 min 0,000 mm 0,0 UV-I 0 W/m 14,0 C 14,5 C 4,0 km/h (1 Bft) 0,00 %
03.09.2015 21:10 14,4 C 98 % 1013,3 hPa 0,9 l/m 4,3 km/h (1 Bft) N-NW 337 0 min 0,000 mm 0,0 UV-I 0 W/m 14,1 C 14,4 C 7,9 km/h (2 Bft) 0,00 %
03.09.2015 21:15 14,3 C 98 % 1013,5 hPa 0,6 l/m 6,8 km/h (2 Bft) W-NW 290 0 min 0,000 mm 0,0 UV-I 0 W/m 14,0 C 14,1 C 7,9 km/h (2 Bft) 0,00 %
03.09.2015 21:20 14,3 C 98 % 1013,7 hPa 0,3 l/m 3,2 km/h (1 Bft) O-NO 65 0 min 0,000 mm 0,0 UV-I 0 W/m 14,0 C 14,3 C 7,9 km/h (2 Bft) 0,00 %
03.09.2015 21:25 14,3 C 98 % 1013,8 hPa 0,0 l/m 1,4 km/h (1 Bft) NW 317 0 min 0,000 mm 0,0 UV-I 0 W/m 14,0 C 14,3 C 4,0 km/h (1 Bft) 0,00 %
03.09.2015 21:30 14,3 C 99 % 1014,1 hPa 0,3 l/m 2,9 km/h (1 Bft) W-NW 295 0 min 0,000 mm 0,0 UV-I 0 W/m 14,1 C 14,3 C 4,0 km/h (1 Bft) 0,00 %
03.09.2015 21:35 14,3 C 99 % 1014,2 hPa 0,3 l/m 0,4 km/h (0 Bft) N 349 0 min 0,000 mm 0,0 UV-I 0 W/m 14,1 C 14,3 C 4,0 km/h (1 Bft) 0,00 %
03.09.2015 21:40 14,2 C 99 % 1013,8 hPa 0,3 l/m 1,8 km/h (1 Bft) W-NW 287 0 min 0,000 mm 0,0 UV-I 0 W/m 14,0 C 14,2 C 4,0 km/h (1 Bft) 0,00 %
03.09.2015 21:45 14,2 C 99 % 1014,0 hPa 0,0 l/m 2,2 km/h (1 Bft) W-NW 303 0 min 0,000 mm 0,0 UV-I 0 W/m 14,0 C 14,2 C 7,9 km/h (2 Bft) 0,00 %
03.09.2015 21:50 14,1 C 99 % 1014,4 hPa 0,6 l/m 0,0 km/h (0 Bft) N 351 0 min 0,000 mm 0,0 UV-I 0 W/m 13,9 C 14,1 C 0,0 km/h (0 Bft) 0,00 %
03.09.2015 21:55 14,0 C 99 % 1014,4 hPa 0,0 l/m 2,2 km/h (1 Bft) N 5 0 min 0,000 mm 0,0 UV-I 0 W/m 13,8 C 14,0 C 4,0 km/h (1 Bft) 0,00 %
03.09.2015 22:00 14,0 C 99 % 1014,4 hPa 0,3 l/m 5,4 km/h (1 Bft) N-NW 346 0 min 0,000 mm 0,0 UV-I 0 W/m 13,8 C 14,0 C 7,9 km/h (2 Bft) 0,00 %
03.09.2015 22:05 13,9 C 99 % 1014,7 hPa 0,3 l/m 4,3 km/h (1 Bft) O-SO 118 0 min 0,000 mm 0,0 UV-I 0 W/m 13,7 C 13,9 C 7,9 km/h (2 Bft) 0,00 %
03.09.2015 22:10 13,9 C 99 % 1014,6 hPa 0,0 l/m 1,8 km/h (1 Bft) N-NW 344 0 min 0,000 mm 0,0 UV-I 0 W/m 13,7 C 13,9 C 4,0 km/h (1 Bft) 0,00 %
03.09.2015 22:15 13,9 C 99 % 1014,7 hPa 0,3 l/m 1,4 km/h (1 Bft) N-NW 329 0 min 0,000 mm 0,0 UV-I 0 W/m 13,7 C 13,9 C 7,9 km/h (2 Bft) 0,00 %
03.09.2015 22:20 13,9 C 99 % 1014,6 hPa 0,3 l/m 4,0 km/h (1 Bft) W-SW 256 0 min 0,000 mm 0,0 UV-I 0 W/m 13,7 C 13,9 C 7,9 km/h (2 Bft) 0,00 %
03.09.2015 22:25 13,8 C 99 % 1014,6 hPa 0,3 l/m 0,4 km/h (0 Bft) NO 55 0 min 0,000 mm 0,0 UV-I 0 W/m 13,6 C 13,8 C 4,0 km/h (1 Bft) 0,00 %
03.09.2015 22:30 13,8 C 99 % 1014,4 hPa 0,3 l/m 9,4 km/h (2 Bft) NW 313 0 min 0,000 mm 0,0 UV-I 0 W/m 13,6 C 12,1 C 15,8 km/h (3 Bft) 0,00 %
03.09.2015 22:35 13,7 C 99 % 1014,7 hPa 0,6 l/m 10,4 km/h (2 Bft) W 261 0 min 0,000 mm 0,0 UV-I 0 W/m 13,5 C 11,5 C 11,9 km/h (2 Bft) 0,00 %
03.09.2015 22:40 13,6 C 99 % 1014,8 hPa 0,3 l/m 4,7 km/h (1 Bft) N-NW 335 0 min 0,000 mm 0,0 UV-I 0 W/m 13,4 C 13,6 C 7,9 km/h (2 Bft) 0,00 %
03.09.2015 22:45 13,6 C 99 % 1014,7 hPa 0,6 l/m 0,0 km/h (0 Bft) N-NW 347 0 min 0,000 mm 0,0 UV-I 0 W/m 13,4 C 13,6 C 0,0 km/h (0 Bft) 0,00 %
03.09.2015 22:50 13,6 C 99 % 1015,0 hPa 0,3 l/m 5,8 km/h (2 Bft) SW 217 0 min 0,000 mm 0,0 UV-I 0 W/m 13,4 C 13,6 C 7,9 km/h (2 Bft) 0,00 %
03.09.2015 22:55 13,5 C 99 % 1014,9 hPa 0,3 l/m 0,0 km/h (0 Bft) O-NO 72 0 min 0,000 mm 0,0 UV-I 0 W/m 13,3 C 13,5 C 0,0 km/h (0 Bft) 0,00 %
03.09.2015 23:00 13,5 C 99 % 1014,8 hPa 0,3 l/m 1,8 km/h (1 Bft) NW 318 0 min 0,000 mm 0,0 UV-I 0 W/m 13,3 C 13,5 C 4,0 km/h (1 Bft) 0,00 %
03.09.2015 23:05 13,4 C 99 % 1014,9 hPa 0,0 l/m 3,2 km/h (1 Bft) N-NW 339 0 min 0,000 mm 0,0 UV-I 0 W/m 13,2 C 13,4 C 4,0 km/h (1 Bft) 0,00 %
03.09.2015 23:10 13,3 C 99 % 1014,9 hPa 0,3 l/m 0,0 km/h (0 Bft) O-NO 58 0 min 0,000 mm 0,0 UV-I 0 W/m 13,1 C 13,3 C 0,0 km/h (0 Bft) 0,00 %
03.09.2015 23:15 13,3 C 99 % 1015,0 hPa 0,0 l/m 0,0 km/h (0 Bft) N 357 0 min 0,000 mm 0,0 UV-I 0 W/m 13,1 C 13,3 C 0,0 km/h (0 Bft) 0,00 %
03.09.2015 23:20 13,2 C 99 % 1014,9 hPa 0,0 l/m 2,9 km/h (1 Bft) S 177 0 min 0,000 mm 0,0 UV-I 0 W/m 13,0 C 13,2 C 4,0 km/h (1 Bft) 0,00 %
03.09.2015 23:25 13,2 C 99 % 1014,8 hPa 0,0 l/m 1,8 km/h (1 Bft) S 186 0 min 0,000 mm 0,0 UV-I 0 W/m 13,0 C 13,2 C 4,0 km/h (1 Bft) 0,00 %
03.09.2015 23:30 13,2 C 99 % 1014,7 hPa 0,0 l/m 1,4 km/h (1 Bft) NW 323 0 min 0,000 mm 0,0 UV-I 0 W/m 13,0 C 13,2 C 4,0 km/h (1 Bft) 0,00 %
03.09.2015 23:35 13,1 C 99 % 1014,9 hPa 0,0 l/m 0,7 km/h (0 Bft) N-NW 331 0 min 0,000 mm 0,0 UV-I 0 W/m 12,9 C 13,1 C 4,0 km/h (1 Bft) 0,00 %
03.09.2015 23:40 13,1 C 99 % 1014,7 hPa 0,0 l/m 0,0 km/h (0 Bft) N 350 0 min 0,000 mm 0,0 UV-I 0 W/m 12,9 C 13,1 C 0,0 km/h (0 Bft) 0,00 %
03.09.2015 23:45 13,0 C 99 % 1015,1 hPa 0,0 l/m 0,4 km/h (0 Bft) O-SO 110 0 min 0,000 mm 0,0 UV-I 0 W/m 12,8 C 13,0 C 4,0 km/h (1 Bft) 0,00 %
03.09.2015 23:50 12,9 C 99 % 1015,0 hPa 0,3 l/m 0,0 km/h (0 Bft) N 357 0 min 0,000 mm 0,0 UV-I 0 W/m 12,7 C 12,9 C 0,0 km/h (0 Bft) 0,00 %
03.09.2015 23:55 12,9 C 99 % 1015,1 hPa 0,0 l/m 0,7 km/h (0 Bft) W-SW 255 0 min 0,000 mm 0,0 UV-I 0 W/m 12,7 C 12,9 C 4,0 km/h (1 Bft) 0,00 %
_ Min-Zeit 01:49 14:25 17:00 - 00:09 - - - - - - 10:25 22:35 00:09 00:04
Minimum _ 12,6 C 64 % 1011,3 hPa - 0,0 km/h (0 Bft) - - - - - - 11,6 C 11,5 C 0,0 km/h (0 Bft) 0,00 %
_ Max-Zeit 16:15 00:04 00:14 21:00 22:35 - - 10:05 00:04 10:20 11:15 20:00 16:15 08:24 00:04
Maximum _ 19,7 C 99 % 1016,2 hPa 1,8 l/m 10,4 km/h
W (2 Bft)
- - 5 min 0,000 mm 2,0 UV-I 647 W/m 14,7 C 19,7 C 15,8 km/h
SO (3 Bft)
0,00 %
Durchschnitt _ 15,0 C 89 % 1013,5 hPa #15,9 l/m 1,1 km/h (1 Bft) O-SO - #1:05 h #0,000 mm 1,2 UV-I 183 W/m 13,0 C 15,0 C 2,5 km/h (1 Bft) 0,00 %